DECAYED

METEOR 2-7 DEB, 28597 (Decayed)

Orbit data source: Space-Track

METEOR 2-7 DEB, 28597 was space debris in LEO originally from a launch on Thu, 14 May 1981 UTC launched from the Plesetsk Missile And Space Complex (PKMTR). Debris objects in space refer to the collection of defunct objects orbiting the Earth. Examples of debris include non-operational satellites, rocket bodies, and fragments generated from explosions, collisions, or faulty payload assembly.

Loading next visibility...
METEOR 2-7 DEB details
Identifier
28597, 1981-043G
Orbit
Decayed
Last TLE update3 months ago
Origin
Flag of CISKVR (CIS)
ManufacturerUnknown
MissionDecayed spacecraft
Bus & MotorUnknown
MassUnknown
Launch date (UTC)
1981-05-14 (44 years ago)
Launch vehicleUnknown
Launch site
Plesetsk Missile And Space Complex (PKMTR)
Object type
Payload
Rocket body
Debris
Shape & HBRUnknown
Radar Cross SectionSmall (<0.1 m²)

Expand to show TLE details & history

TLE from 3 months ago
0 METEOR 2-7 DEB
1 28597U 81043G   24282.80353369  .00282397  00000-0  52308-1 0  9992
2 28597  81.2497 115.3705 0026671 168.2594 191.9234 14.63261477535927
Epoch: 2024-10-08T19:17Z
Definitive object data (Epoch: 2024-10-08T19:17:05.31Z)
Latitude-0.00006°
Longitude168.18682°
Altitude704.066 km
Speed7.494 km/s
True Right ascension07h 41m 28s
True Declination0° 00' 00"
Sunlit
Object was in daylight at TLE epoch
Visualization TLE readout
Latitude-63.02553°
Longitude-80.68145°
Altitude425.171 km
Speed7.66 km/s
Apparent Right ascension23h 01m 32s
Apparent Declination-75° 38' 49"
Sunlit
Object is in daylight
Visualization observer readout
Local Sidereal Time13:15:49
Azimuth167.345° S
Elevation-51.266°
Doppler factor1
Orbital elements
Apogee altitude698.59 km
Perigee altitude660.941 km
Semi-major axis7,057.903 km
Eccentricity0.0026671
Inclination81.2497°
RAAN115.3705°
Arg. of periapsis168.2594°
True anomaly191.86046°
Mean anomaly191.9234°
Eccentric anomaly191.89191°
Mean motion3.66041 °/min
BSTAR0.052308
Orbital period98.35 mins
Loading maneuver chart data...
Loading historical data...
Loading historical data...
Loading historical data...
Loading historical data...
Loading historical data...
Loading historical data...
Loading historical data...

METEOR 2-7 DEB Visibility forecast

Observer location: undefined°, undefined

Span
Click to sort rows by Start time (UTC) header in descending order
Start Az.
Max El. time (UTC)
Max El. Az.
Max El.
End time (UTC)
End Az.
5 mins2024-12-27 02:55:04.368Z184.625° SSW2024-12-27 02:57:04.368Z46.232° ENE44.455°2024-12-27 03:00:04.368Z10.765° NNE
|